GW2584 Weather Reports


Display with metric or nautical units.
time (UTC)temp
F
wind
direction
speed
MPH
gust
MPH
rain 1hr
in
rain 24hr
in
rain mn
in
humidity
%
barometer
mb
20260507191559 58 186 2.0 10.0 0.00 0.27 0.27 34 1017.5
20260507190059 57 242 4.0 14.0 0.00 0.27 0.27 33 1017.5
20260507184556 58 189 0.0 13.0 0.00 0.27 0.27 35 1017.6
20260507183059 55 231 4.0 16.0 0.00 0.27 0.27 38 1017.6
20260507181559 51 211 5.0 14.0 0.00 0.27 0.27 42 1017.4
20260507174608 49 199 0.0 2.0 0.00 0.27 0.27 51 1018.1
20260507173056 49 0 1.0 2.0 0.01 0.27 0.27 51 1017.9
20260507171611 49 188 1.0 4.0 0.01 0.27 0.27 49 1018.1
20260507170057 50 0 3.0 11.0 0.03 0.27 0.27 45 1018.1
20260507164600 49 206 3.0 9.0 0.05 0.27 0.27 46 1018.2
20260507163100 47 183 3.0 11.0 0.05 0.26 0.26 50 1018.3
20260507161602 46 182 3.0 12.0 0.08 0.26 0.26 51 1018.6
20260507160058 45 261 8.0 15.0 0.08 0.24 0.24 51 1019.1
20260507154601 45 188 3.0 11.0 0.09 0.22 0.22 51 1019.0
20260507153103 44 202 5.0 18.0 0.14 0.21 0.21 54 1018.6
20260507151558 45 302 2.0 5.0 0.16 0.18 0.18 55 1017.9
20260507150110 46 191 1.0 10.0 0.16 0.16 0.16 54 1018.5
20260507144559 46 206 8.0 16.0 0.13 0.13 0.13 51 1018.5
20260507143059 45 253 5.0 17.0 0.07 0.07 0.07 57 1018.0
20260507141605 45 182 6.0 14.0 0.02 0.02 0.02 57 1018.0
20260507140107 45 226 4.0 12.0 0.00 0.00 0.00 58 1018.1
20260507134559 45 210 5.0 15.0 0.00 0.00 0.00 56 1018.0
20260507133116 44 226 6.0 12.0 0.00 0.00 0.00 53 1018.0
20260507131557 42 202 4.0 11.0 0.00 0.00 0.00 58 1017.6
20260507130110 41 195 5.0 15.0 0.00 0.00 0.00 58 1017.5
20260507124634 41 176 5.0 14.0 0.00 0.00 0.00 57 1017.4
20260507123105 41 225 6.0 15.0 0.00 0.00 0.00 58 1017.1
20260507121600 40 231 6.0 15.0 0.00 0.00 0.00 59 1016.9
20260507120057 40 250 5.0 17.0 0.00 0.00 0.00 58 1016.9
20260507114610 39 0 0.0 0.0 0.00 0.00 0.00 59 1017.1
20260507113058 39 0 0.0 0.0 0.00 0.00 0.00 60 1017.5
20260507111555 38 0 0.0 0.0 0.00 0.00 0.00 61 1017.7
20260507110057 39 0 0.0 0.0 0.00 0.00 0.00 60 1017.4
20260507104558 38 0 0.0 0.0 0.00 0.00 0.00 61 1017.4
20260507103058 39 0 0.0 0.0 0.00 0.00 0.00 60 1017.3
20260507101559 38 0 0.0 0.0 0.00 0.00 0.00 60 1017.4
20260507100057 39 0 0.0 0.0 0.00 0.00 0.00 59 1017.6
20260507094555 38 0 0.0 0.0 0.00 0.00 0.00 60 1017.6
20260507093100 37 0 0.0 0.0 0.00 0.00 0.00 63 1017.3
20260507091559 37 0 0.0 0.0 0.00 0.00 0.00 63 1017.4
20260507090103 36 0 0.0 0.0 0.00 0.00 0.00 66 1017.4
20260507084600 37 0 0.0 0.0 0.00 0.00 0.00 62 1017.5
20260507083058 37 0 0.0 0.0 0.00 0.00 0.00 63 1017.5
20260507081600 36 0 0.0 0.0 0.00 0.00 0.00 64 1017.5
20260507080103 36 0 0.0 0.0 0.00 0.00 0.00 64 1017.6
20260507074615 35 0 0.0 0.0 0.00 0.00 0.00 64 1017.6
20260507073108 35 0 0.0 0.0 0.00 0.00 0.00 64 1017.9
20260507071559 34 0 0.0 0.0 0.00 0.00 0.00 67 1018.1
20260507070116 34 0 0.0 0.0 0.00 0.00 0.00 66 1018.1
20260507064615 34 0 0.0 0.0 0.00 0.00 0.00 67 1018.3
20260507063101 35 0 0.0 0.0 0.00 0.00 0.00 66 1018.4
20260507061555 35 0 0.0 0.0 0.00 0.00 0.00 66 1018.1
20260507060057 34 0 0.0 0.0 0.00 0.00 0.00 69 1017.9
20260507054557 34 0 0.0 0.0 0.00 0.00 0.00 69 1017.6
20260507053058 34 0 0.0 0.0 0.00 0.00 0.00 69 1017.6
20260507051600 33 0 0.0 0.0 0.00 0.00 0.00 70 1017.8
20260507050058 33 0 0.0 0.0 0.00 0.00 0.00 74 1017.9
20260507044559 34 0 0.0 0.0 0.00 0.00 0.00 70 1018.0
20260507043100 32 0 0.0 0.0 0.00 0.00 0.00 74 1018.1
20260507041559 33 0 0.0 0.0 0.00 0.00 0.00 73 1018.2
20260507040111 32 0 0.0 0.0 0.00 0.00 0.00 78 1018.4
20260507034618 31 0 0.0 0.0 0.00 0.00 0.00 82 1018.3
20260507033105 31 0 0.0 0.0 0.00 0.00 0.00 84 1018.2
20260507031628 30 0 0.0 0.0 0.00 0.00 0.00 91 1018.3
20260507030101 30 0 0.0 0.0 0.00 0.00 0.00 93 1018.1
20260507024558 30 0 0.0 0.0 0.00 0.00 0.00 94 1018.0
20260507023057 30 0 0.0 0.0 0.00 0.00 0.00 93 1017.9
20260507021556 30 0 0.0 0.0 0.00 0.00 0.00 93 1017.8
20260507020058 30 0 0.0 0.0 0.00 0.00 0.00 93 1017.5
20260507014602 31 0 0.0 0.0 0.00 0.00 0.00 92 1017.3
20260507013117 31 0 0.0 0.0 0.00 0.00 0.00 92 1017.3
20260507011607 31 0 0.0 0.0 0.00 0.00 0.00 92 1017.4
20260507010109 31 0 0.0 0.0 0.00 0.00 0.00 91 1017.6
20260507004559 32 0 0.0 0.0 0.00 0.00 0.00 91 1017.5
20260507003059 32 0 0.0 0.0 0.00 0.00 0.00 91 1017.7
20260507001557 31 0 0.0 0.0 0.00 0.00 0.00 90 1017.8
20260507000057 31 0 0.0 0.0 0.00 0.00 0.00 90 1018.0
20260506234559 31 0 0.0 0.0 0.00 0.00 0.00 90 1018.1
20260506233108 31 0 0.0 0.0 0.00 0.00 0.00 89 1018.1
20260506231605 31 0 0.0 0.0 0.00 0.00 0.00 89 1018.1
20260506230105 31 0 0.0 0.0 0.00 0.00 0.00 89 1017.8
20260506224556 31 0 0.0 0.0 0.00 0.00 0.00 88 1018.0
20260506223059 32 0 0.0 0.0 0.00 0.00 0.00 87 1018.0
20260506221604 32 0 0.0 0.0 0.00 0.00 0.00 87 1018.1
20260506220100 32 0 0.0 0.0 0.00 0.00 0.00 87 1018.4
20260506214603 30 0 0.0 0.0 0.00 0.00 0.00 89 1018.5
20260506213101 30 0 0.0 0.0 0.00 0.00 0.00 88 1018.7
20260506211609 30 0 0.0 0.0 0.00 0.00 0.00 88 1018.8
20260506210058 30 0 0.0 0.0 0.00 0.00 0.00 88 1018.9
20260506204559 30 0 0.0 0.0 0.00 0.00 0.00 87 1019.1
20260506203055 30 0 0.0 0.0 0.00 0.00 0.00 89 1019.1
20260506201558 30 0 0.0 0.0 0.00 0.00 0.00 88 1019.2
20260506200055 29 0 0.0 0.0 0.00 0.00 0.00 89 1019.4
20260506194556 29 0 0.0 0.0 0.00 0.00 0.00 89 1019.4
20260506193055 29 0 0.0 0.0 0.00 0.00 0.00 90 1019.4